THOR ABLESTAR DEB, 234

Orbit data source: Space-Track

THOR ABLESTAR DEB, 234 is space debris in LEO originally from a launch on Thu, 29 Jun 1961 UTC launched from the Air Force Eastern Test Range (AFETR). Debris objects in space refer to the collection of defunct objects orbiting the Earth. Examples of debris include non-operational satellites, rocket bodies, and fragments generated from explosions, collisions, or faulty payload assembly.

Loading next visibility...
THOR ABLESTAR DEB details
Identifier
234, 1961-015BS
Orbit
LEO
Last TLE update4 hours ago
Origin
Flag of USUSAF SSD (US)
ManufacturerUnknown
MissionSpacecraft
Bus & MotorUnknown
MassUnknown
Launch date (UTC)
1961-06-29 (64 years ago)
Launch vehicleUnknown
Launch site
Air Force Eastern Test Range (AFETR)
Object type
Payload
Rocket body
Debris
Shape & HBRUnknown
Radar Cross SectionSmall (<0.1 m²)

Expand to show TLE details & history

TLE from 4 hours ago
0 THOR ABLESTAR DEB
1   234U 61015BS  25037.84827361  .00000572  00000-0  40609-3 0  9994
2   234  66.8776 313.4966 0065459 132.2957 228.3704 14.03628654242442
Epoch: 2025-02-06T20:21Z
Definitive object data (Epoch: 2025-02-06T20:21:30.839Z)
Latitude-0.00001°
Longitude-129.10087°
Altitude915.096 km
Speed7.379 km/s
True Right ascension20h 53m 59s
True Declination0° 00' 00"
Sunlit
Object was in daylight at TLE epoch
Visualization TLE readout
Latitude-24.17228°
Longitude61.43451°
Altitude876.104 km
Speed7.42 km/s
Apparent Right ascension11h 46m 48s
Apparent Declination-38° 12' 42"
Sunlit
Object is in full shadow
Visualization observer readout
Local Sidereal Time02:54:13
Azimuth102.743° ESE
Elevation-54.001°
Doppler factor1
Orbital elements
Apogee altitude927.14 km
Perigee altitude832.123 km
Semi-major axis7,257.768 km
Eccentricity0.0065459
Inclination66.8776°
RAAN313.4966°
Arg. of periapsis132.2957°
True anomaly227.81277°
Mean anomaly228.3704°
Eccentric anomaly228.09128°
Mean motion3.51025 °/min
BSTAR0.00040609
Orbital period102.56 mins
Loading maneuver chart data...

THOR ABLESTAR DEB Visibility forecast

Observer location: undefined°, undefined

Span
Click to sort rows by Start time (UTC) header in descending order
Start Az.
Max El. time (UTC)
Max El. Az.
Max El.
End time (UTC)
End Az.
7 mins2025-02-07 03:44:06.101Z3.404° NNE2025-02-07 03:47:06.101Z39.276° NE19.26°2025-02-07 03:51:06.101Z89.056° E
9 mins2025-02-07 05:29:06.101Z323.673° NNW2025-02-07 05:33:06.101Z267.615° W42.222°2025-02-07 05:38:06.101Z164.896° S
8 mins2025-02-07 18:43:06.101Z151.898° SSE2025-02-07 18:46:06.101Z114.632° SE23.104°2025-02-07 18:51:06.101Z54.517° ENE
10 mins2025-02-07 20:27:06.101Z233.607° WSW2025-02-07 20:32:06.101Z318.738° NNW36.473°2025-02-07 20:37:06.101Z18.407° NNE
|